Location: Unspecified
(0.0000°N, 0.0000°E)
Time: 00:41:09
(UTC+00:00)

NOAA 12 - Pass Details

Date: 27 January 2013
Orbit: 795 x 816 km, 98.6° (Epoch: 22 August)

Event Time Altitude Azimuth Distance (km) Brightness Sun altitude
Rises 18:56:51 0° 135° (SE) 3,307 7.0 -10.4°
Reaches altitude 10° 19:00:03 10° 115° (ESE) 2,378 6.1 -11.2°
Maximum altitude 19:03:15 16° 77° (ENE) 1,968 5.5 -11.9°
Enters shadow 19:03:48 16° 69° (ENE) 1,982 5.5 -12.1°
